Regional Weather Roundup
Issued by NWS

Home | Current Version | Previous Version | Graphics & Text | Print | Product List | Glossary On
Versions: 1 2 3 4 5 6 7 8 9 10 11 12 13 14 15 16 17 18 19 20 21 22 23 24 25 26 27 28 29 30 31 32 33 34 35 36 37 38 39 40 41 42 43 44 45 46 47 48 49 50
000
ASUS43 KIND 310209
RWRIN

WEATHER ROUNDUP FOR INDIANA
NATIONAL WEATHER SERVICE INDIANAPOLIS IN
1000 PM EDT SAT AUG 30 2014

NOTE: "FAIR" INDICATES FEW OR NO CLOUDS BELOW 12,000 FEET WITH NO
SIGNIFICANT WEATHER AND/OR OBSTRUCTIONS TO VISIBILITY.

* - STATION DOES NOT REPORT WEATHER SUCH AS PRECIPITATION OR FOG.

+ - STATION NOT QUALITY CONTROLLED BY THE NATIONAL WEATHER SERVICE.
    USE DATA WITH CAUTION...ESPECIALLY DEWPOINT AND RELATIVE
    HUMIDITY OBSERVATIONS.

INZ001>003-010>013-019-020-310300-
NORTHWEST INDIANA

CITY           SKY/WX    TMP DP  RH WIND       PRES   REMARKS
GARY /AIRPORT/ PTCLDY    73  70  88 S6        29.91R
KNOX *+        CLOUDY    74  70  87 S10G18    29.91F
LA PORTE +     CLOUDY    72  70  94 S3        29.93S
MICHIGAN CITY+ CLOUDY    70  68  94 SW6       29.91S
MONTICELLO +   MOCLDY    74  70  87 S10G17    29.93S
RENSSELAER +   LGT RAIN  72  72 100 SW8       29.94R
VALPARAISO     CLOUDY    71  68  90 S6        29.93R

$$

LMZ046-743>745-310300-
SOUTHERN LAKE MICHIGAN

STATION/POSITION TIME  TEMP WIND        PRES
                       AIR  DIR/SP/G
                 (UTC) (F)  (DEG/KT/KT) (MB)
MICHIGAN CITY    0200   72  170/ 15/ 19   N/A

$$

INZ004-005-014>016-021>024-310300-
NORTH CENTRAL INDIANA

CITY           SKY/WX    TMP DP  RH WIND       PRES   REMARKS
GOSHEN         CLOUDY    76  69  79 S13       29.93R
LOGANSPORT +   MOCLDY    72  68  88 S10       29.96S
PERU/GRISSOM   CLOUDY    74  74 100 SW13      29.97R
ROCHESTER +    MOCLDY    77  70  78 S9        29.95S
SOUTH BEND     TSTM      74  71  91 W8        29.91S
WARSAW +       CLOUDY    73  70  88 SW8G18    29.94S

$$

INZ006>009-017-018-025>027-310300-
NORTHEAST INDIANA

CITY           SKY/WX    TMP DP  RH WIND       PRES   REMARKS
ANGOLA *+      CLOUDY    75  70  83 SW14      29.93S
AUBURN +       CLOUDY    75  66  73 SW8G16    29.96R
FORT WAYNE     CLOUDY    74  70  87 SW10      29.97R
HUNTINGTON +   CLOUDY    74  71  89 SW6       29.97R

$$

INZ028-029-035-036-043>045-051>053-310300-
WEST CENTRAL INDIANA

CITY           SKY/WX    TMP DP  RH WIND       PRES   REMARKS
GREENCASTLE +  CLOUDY    72  70  94 S7        30.00R
LAFAYETTE      MOCLDY    74  70  87 S7        29.94R
TERRE HAUTE    CLOUDY    73  69  87 S10       29.98R

$$

INZ030>032-037>040-046>048-054>057-064-065-310300-
CENTRAL INDIANA

CITY           SKY/WX    TMP DP  RH WIND       PRES   REMARKS
CP ATTERBURY + CLOUDY    72  68  88 SW6       30.02R
COLUMBUS       MOCLDY    73  68  83 S8        30.02R
FRANKFORT +    CLOUDY    73  70  88 S5        29.99R
GREENWOOD *+   CLOUDY    73  72  94 S6        30.01R
INDIANAPOLIS   CLOUDY    73  69  87 S13       29.98R
-EAGLE CREEK   CLOUDY    75  68  78 S7        29.99R
KOKOMO *+      CLOUDY    73  68  83 SW14      29.97R
MARION +       CLOUDY    73  69  85 S8        29.99R
MT COMFORT *+  CLOUDY    73  73 100 S7        30.01S
SHELBYVILLE    CLOUDY    74  69  85 S10       30.00S
ZIONSVILLE +   CLOUDY    75  68  79 S9        30.00R

$$

INZ033-034-041-042-049-050-058-059-310300-
EAST CENTRAL INDIANA

CITY           SKY/WX    TMP DP  RH WIND       PRES   REMARKS
MUNCIE         CLOUDY    75  69  81 S12       30.00R

$$

INZ060-061-067>069-081>083-085>088-310300-
SOUTHWEST INDIANA

CITY           SKY/WX    TMP DP  RH WIND       PRES   REMARKS
EVANSVILLE     CLOUDY    72  69  90 CALM      30.01R
WASHINGTON +   CLOUDY    70  70 100 S7        30.00R

$$

INZ062-063-066-070>080-084-089>092-310300-
SOUTH CENTRAL AND SOUTHEAST INDIANA

CITY           SKY/WX    TMP DP  RH WIND       PRES   REMARKS
BLOOMINGTON    CLOUDY    71  68  90 S7        30.02R

$$




USA.gov is the U.S. government's official web portal to all federal, state and local government web resources and services.